Location: Fort Wayne
(41.1310°N, 85.1290°W)
Time: 12:09:22
(UTC-04:00)

Cosmos 2056 Rocket - Visible Passes

Search period start: 24 October 2014 00:00
Search period end: 02 November 2014 23:00
Orbit: 742 x 803 km, 74.0° (Epoch: 24 October)

Date Brightness Start Highest point End Pass type
(mag) Time Alt. Az. Time Alt. Az. Time Alt. Az.
24 Oct 6.4 06:44:09 10° NNE 06:46:24 13° NE 06:48:40 10° ENE visible
26 Oct 5.4 07:13:04 10° N 07:17:55 32° ENE 07:22:44 10° SE visible
27 Oct 6.0 06:37:57 10° N 06:42:00 21° ENE 06:46:02 10° ESE visible
28 Oct 6.3 06:03:19 10° NNE 06:05:58 14° NE 06:08:37 10° E visible
29 Oct 4.3 07:07:53 10° N 07:13:13 56° ENE 07:18:32 10° SE visible
30 Oct 5.2 06:32:29 10° N 06:37:26 35° ENE 06:42:21 10° SE visible
30 Oct 5.1 21:10:02 10° SSW 21:12:06 25° SSW 21:12:06 25° SSW visible
31 Oct 5.8 05:57:18 10° N 06:01:32 23° ENE 06:05:44 10° ESE visible
31 Oct 3.8 07:38:45 10° NNW 07:43:59 50° WSW 07:49:11 10° S visible
31 Oct 3.8 20:34:35 10° S 20:38:43 48° SE 20:38:43 48° SE visible
31 Oct 6.2 22:18:22 10° WSW 22:19:11 13° W 22:19:11 13° W visible
01 Nov 6.3 05:22:32 10° NNE 05:25:31 15° NE 05:28:29 10° E visible
01 Nov 3.5 07:02:57 10° NNW 07:08:24 83° WSW 07:13:48 10° SSE visible
01 Nov 4.1 19:59:33 10° SSE 20:04:07 32° E 20:05:16 29° ENE visible
01 Nov 5.2 21:41:37 10° SW 21:45:44 31° WNW 21:45:44 31° WNW visible
02 Nov 4.1 05:27:20 10° NNW 05:32:43 61° ENE 05:38:04 10° SSE visible
02 Nov 4.8 18:25:04 10° SE 18:28:42 19° E 18:31:41 13° ENE visible
02 Nov 4.3 20:05:21 10° SW 20:10:24 50° WNW 20:12:09 36° NNW visible
